Flag for Canada Weather past 2 weeks in Paradise, Newfoundland and Labrador, Canada

57 °F

Light rain. Mostly cloudy.

Feels Like: 53 °F
Forecast: 42 / 57 °F
Wind: 18 mph from Southwest

Location: St. John's

Current Time: Oct 10, 2015 at 5:20:02 PM

Latest Report: Oct 10, 2015 at 4:30 PM

Visibility: 2 mi

Pressure: 29.38 "Hg

Humidity: 94%

Dew point: 55 °F

Location of ParadiseLocation

Historic Weather in Paradise — Graph


Paradise temperature yesterday

Maximum temperature yesterday: 52 °F (at 3:30 PM)
Minimum temperature yesterday: 39 °F (at 6:30 AM)
Average temperature yesterday: 45 °F

Past Weeks' High & Low Weather Summary

High73 °F (Sep 30, 1:30 PM)100% (Sep 30, 12:30 AM)30.33 "Hg (Sep 30, 12:30 AM)
Low36 °F (Sep 26, 9:30 PM)39% (Oct 6, 4:30 PM)29.40 "Hg (Oct 10, 3:30 PM)
Average50 °F81%30.07 "Hg
* Reported Sep 25 3:30 PM — Oct 10 3:30 PM, Paradise, Weather by CustomWeather, © 2015

Note: Actual official high and low records may vary slightly from our data, if they occured in-between our weather recording intervals... More about our weather records


Paradise weather history for previous 24 hours

Time TempWeatherWind HumidityBarometerVisibility
3:30 PM
Sat, Oct 10
55 °FLight rain. Low clouds.29 mph94%29.40 "Hg15 mi
3:20 PM55 °FLight rain. Low clouds.28 mph94%29.41 "Hg15 mi
2:30 PM54 °FLight rain. Low clouds.29 mph94%29.47 "Hg10 mi
1:30 PM54 °FLight rain. Low clouds.32 mph94%29.54 "Hg15 mi
12:30 PM52 °FLight rain. Fog.32 mph94%29.58 "Hg3 mi
11:30 AM50 °FLight rain. Fog.30 mph100%29.64 "Hg3 mi
10:30 AM50 °FLight rain. Low clouds.25 mph94%29.70 "Hg8 mi
10:19 AM50 °FLight rain. Low clouds.29 mph94%29.71 "Hg12 mi
9:30 AM50 °FOvercast.26 mph88%29.75 "Hg15 mi
8:30 AM50 °FOvercast.26 mph82%29.80 "Hg15 mi
7:30 AM50 °FPassing clouds.22 mph82%29.83 "Hg15 mi
6:30 AM48 °FPassing clouds.14 mph87%29.88 "Hg15 mi
5:30 AM46 °FOvercast.13 mph87%29.90 "Hg15 mi
4:30 AM45 °FOvercast.10 mph87%29.92 "Hg15 mi
3:30 AM45 °FMostly cloudy.10 mph81%29.95 "Hg15 mi
2:30 AM43 °FPassing clouds.6 mph81%29.98 "Hg15 mi
1:30 AM45 °FPassing clouds.7 mph81%29.99 "Hg15 mi
12:30 AM43 °FPassing clouds.8 mph87%30.01 "Hg15 mi
11:30 PM
Fri, Oct 9
45 °FOvercast.6 mph76%30.03 "Hg15 mi
10:30 PM45 °FPassing clouds.6 mph76%30.03 "Hg15 mi
9:30 PM43 °FPassing clouds.9 mph76%30.03 "Hg15 mi
8:30 PM43 °FPassing clouds.8 mph76%30.03 "Hg15 mi
7:30 PM43 °FPartly cloudy.6 mph71%30.03 "Hg15 mi
6:30 PM46 °FPartly sunny.7 mph62%30.03 "Hg15 mi
5:30 PM50 °FBroken clouds.8 mph54%30.02 "Hg15 mi
Weather by CustomWeather, © 2015

See weather overviewHow to use our weather pages